Location: Czu?�w
(50.1404°N, 18.9919°E)
Time: 14:47:42
(UTC+00:00)

Cosmos 1697 Rocket - Pass Details

Date: 27 October 2020
Orbit: 831 x 845 km, 71.0° (Epoch: 29 November)

Event Time Altitude Azimuth Distance (km) Brightness Sun altitude
Rises 17:39:35 0° 198° (SSW) 3,365 6.0 -21.5°
Reaches altitude 10° 17:42:01 10° 195° (SSW) 2,436 5.2 -21.9°
Maximum altitude 17:47:33 67° 114° (ESE) 904 2.5 -22.8°
Enters shadow 17:49:37 39° 46° (NE) 1,240 3.2 -23.1°
